Regional Weather Roundup
Issued by NWS State College, PA

Home | Current Version | Previous Version | Text Only | Print | Product List | Glossary Off
Versions: 1 2 3 4 5 6 7 8 9 10 11 12 13 14 15 16 17 18 19 20 21 22 23 24 25 26 27 28 29 30 31 32 33 34 35 36 37 38 39 40 41 42 43 44 45 46 47 48 49 50

000
ASUS41 KCTP 020503
RWRCTP

REGIONAL WEATHER ROUNDUP
NATIONAL WEATHER SERVICE STATE COLLEGE PA
100 AM EDT THU OCT 02 2014

Note: "fair" indicates few or no clouds below 12,000 feet with no
significant weather and/or obstructions to visibility.

* = STATION THAT DOES NOT REPORT PRECIPITATION /E.G. RAIN...SNOW...ETC/
    THUNDER OR FOG.

PAZ002>004-007>009-013>016-020>023-029>032-020600-
WESTERN PENNSYLVANIA

CITY           SKY/WX    TMP DP  RH WIND       PRES   REMARKS
ERIE           CLEAR     59  56  89 SW3       30.05S FOG
MEADVILLE      FOG       53  51  93 CALM      30.06F VSB 1/2
FRANKLIN*      CLEAR     54  50  87 E5        30.08S
NEW CASTLE     FOG       52  52 100 CALM      30.08S VSB<1/4
BEAVER COUNTY  NOT AVBL
BUTLER*        PTCLDY    54  52  94 CALM      30.08F
PITTSBURGH INT CLEAR     54  53  97 CALM      30.05F FOG
PITTSBURGH     FOG       57  54  89 E3        30.06S VSB 1
INDIANA*       PTCLDY    54  52  94 E5        30.12S
LATROBE        FOG       54  54 100 CALM      30.08S VSB 0
WASHINGTON CO* CLOUDY    48  46  93 CALM      30.08S VSB<1/4
$$

PAZ004>006-010>012-017>019-024>028-033>037-041-042-045-046-049>053-020600-
CENTRAL PENNSYLVANIA

CITY           SKY/WX    TMP DP  RH WIND       PRES   REMARKS
BRADFORD       FOG       48  47  96 CALM      30.10S VSB 1/4
DUBOIS         CLEAR     55  53  93 SE3       30.09S
CLEARFIELD     PTCLDY    51  50  96 NE6       30.10S FOG
JOHNSTOWN      CLEAR     54  52  93 CALM      30.10S FOG
ALTOONA        MOCLDY    54  54 100 CALM      30.10F FOG
STATE COLLEGE  PTCLDY    53  53  99 CALM      30.10S FOG
WILLIAMSPORT   PTCLDY    61  57  87 VRB3      30.08R
SELINSGROVE    PTCLDY    59  57  93 CALM      30.09F FOG
FT INDIANTOWN  CLEAR     58  58 100 N2        30.10S
CAPITAL CITY   CLOUDY    60  58  92 CALM      30.09S
HARRISBURG     CLOUDY    62  59  90 N3        30.09R
YORK           FOG       51  50  96 CALM      30.09S VSB 1/2
$$

PAZ038>040-043-044-047-048-054-055-060>062-067>071-020600-
EASTERN PENNSYLVANIA

CITY           SKY/WX    TMP DP  RH WIND       PRES   REMARKS
SCRANTON       MOCLDY    57  54  89 E3        30.10S
MOUNT POCONO   CLOUDY    57  53  86 E5        30.11S
ALLENTOWN      MOCLDY    57  54  89 N3        30.09S
QUAKERTOWN*    PTCLDY    55  55 100 CALM      30.10S
READING        PTCLDY    60  55  83 N5        30.08S
LANCASTER      MOCLDY    60  58  92 CALM      30.09S
COATESVILLE    CLEAR     57  55  94 W3        30.10S
POTTSTOWN      CLEAR     56  54  93 CALM      30.10S
BLUE BELL      MOCLDY    59  57  94 CALM      30.08R
DOYLESTOWN     CLOUDY    61  58  90 N3        30.08S
WILLOW GROVE   NOT AVBL
NORTH PHILA    CLOUDY    65  56  72 N6        30.09S
PHILADELPHIA   CLOUDY    65  58  78 NE6       30.08R
$$


USA.gov is the U.S. government's official web portal to all federal, state and local government web resources and services.